Date String (YYYY-MM-DD hh:mm:ss) UTC,Instrument flags,Ambient pressure (hPa),Sample flow (lpm),Bypass flow (lpm),Sample temperature (°C),Ambient temperature (°C),ASC tube jacket temperature (°C),LED temperature (°C),Box temperature (°C),Sample RH (%),Span deviation,Mass concentration (μg/m³),Mass concentration (μg/m³),Mass concentration (μg/m³)
DateTimeUTC,F1_M11,P_M11,Q1_M11,Q2_M11,T1_M11,T2_M11,T3_M11,T4_M11,T5_M11,U1_M11,ZSPAN_M11,X0_M11,X2_M11,X1_M11
2022-01-02 09:00:00,,0824.0,5.00,0.00,22.7,22.7,00.0,31.7,24.4,04.7,0000.0,0001.25,0000.04,0000.01
2022-01-02 09:01:00,,0824.0,5.01,0.00,22.8,23.4,00.0,31.7,24.6,04.8,0000.0,0001.24,0000.04,0000.01
2022-01-02 09:02:00,,0824.0,5.01,0.00,22.9,23.4,00.0,31.8,24.7,04.7,0000.0,0001.24,0000.04,0000.01
2022-01-02 09:03:00,,0824.0,4.99,0.00,22.9,23.2,00.0,31.8,24.7,04.5,0000.0,0001.24,0000.04,0000.01
2022-01-02 09:04:00,,0824.0,5.00,0.00,22.8,22.9,00.0,31.8,24.6,04.7,0000.0,0001.24,0000.04,0000.01
2022-01-02 09:05:00,,0824.0,4.99,0.00,22.8,22.7,00.0,31.8,24.5,04.7,0000.0,0000.94,0000.03,0000.01
2022-01-02 09:06:00,,0824.0,4.99,0.00,22.8,22.5,00.0,31.8,24.4,04.3,0000.0,0000.39,0000.03,0000.01
2022-01-02 09:07:00,,0823.9,5.01,0.00,22.7,22.3,00.0,31.7,24.3,04.2,0000.0,0000.53,0000.03,0000.01
2022-01-02 09:08:00,,0824.0,5.00,0.00,22.7,22.2,00.0,31.7,24.3,04.2,0000.0,0000.61,0000.06,0000.01
2022-01-02 09:09:00,,0824.0,5.01,0.00,22.6,22.1,00.0,31.7,24.2,04.5,0000.0,0000.88,0000.09,0000.01
2022-01-02 09:10:00,,0824.1,5.01,0.00,22.6,21.9,00.0,31.7,24.1,04.7,0000.0,0000.90,0000.09,0000.01
2022-01-02 09:11:00,,0824.1,4.98,0.00,22.6,22.0,00.0,31.7,24.1,04.9,0000.0,0001.23,0000.09,0000.01
2022-01-02 09:12:00,,0824.0,5.00,0.00,22.6,22.6,00.0,31.7,24.3,04.8,0000.0,0002.75,0000.10,0000.01
2022-01-02 09:13:00,,0824.1,5.00,0.00,22.8,23.3,00.0,31.7,24.6,04.6,0000.0,0002.76,0000.11,0000.01
2022-01-02 09:14:00,,0824.0,5.00,0.00,22.9,23.5,00.0,31.7,24.7,04.5,0000.0,0002.76,0000.11,0000.01
2022-01-02 09:15:00,,0824.1,5.01,0.00,22.9,23.2,00.0,31.8,24.7,04.6,0000.0,0002.79,0000.12,0000.01
2022-01-02 09:16:00,,0824.1,5.00,0.00,22.9,23.0,00.0,31.8,24.6,04.4,0000.0,0002.80,0000.12,0000.01
2022-01-02 09:17:00,,0824.0,5.00,0.00,22.8,22.7,00.0,31.8,24.5,04.6,0000.0,0002.43,0000.11,0000.01
2022-01-02 09:18:00,,0824.0,4.98,0.00,22.7,22.3,00.0,31.8,24.3,04.9,0000.0,0004.37,0000.12,0000.01
2022-01-02 09:19:00,,0824.0,5.01,0.00,22.6,22.0,00.0,31.7,24.1,05.2,0000.0,0005.15,0000.09,0000.01
2022-01-02 09:20:00,,0824.0,4.99,0.00,22.5,21.7,00.0,31.7,24.0,05.2,0000.0,0005.31,0000.08,0000.01
2022-01-02 09:21:00,,0824.0,5.01,0.00,22.5,21.6,00.0,31.7,23.9,05.2,0000.0,0005.88,0000.10,0000.01
2022-01-02 09:22:00,,0824.0,5.00,0.00,22.4,21.5,00.0,31.6,23.8,05.2,0000.0,0005.43,0000.11,0000.01
2022-01-02 09:23:00,,0824.0,5.01,0.00,22.3,21.4,00.0,31.6,23.7,05.0,0000.0,0004.16,0000.11,0000.01
2022-01-02 09:24:00,,0824.0,4.99,0.00,22.3,22.0,00.0,31.6,23.9,05.1,0000.0,0004.17,0000.12,0000.02
2022-01-02 09:25:00,,0824.1,5.00,0.00,22.5,22.8,00.0,31.6,24.2,05.1,0000.0,0004.16,0000.11,0000.02
2022-01-02 09:26:00,,0824.1,4.98,0.00,22.6,23.3,00.0,31.6,24.5,05.2,0000.0,0004.13,0000.10,0000.01
2022-01-02 09:27:00,,0824.0,5.00,0.00,22.7,23.0,00.0,31.6,24.4,05.2,0000.0,0004.12,0000.09,0000.01
2022-01-02 09:28:00,,0823.9,5.01,0.00,22.6,22.6,00.0,31.6,24.3,05.3,0000.0,0004.10,0000.09,0000.01
2022-01-02 09:29:00,,0824.0,4.98,0.00,22.5,22.2,00.0,31.6,24.1,05.4,0000.0,0001.94,0000.08,0000.02
2022-01-02 09:30:00,,0824.0,5.01,0.00,22.5,21.9,00.0,31.6,24.0,05.5,0000.0,0001.86,0000.08,0000.02
2022-01-02 09:31:00,,0824.0,5.00,0.00,22.4,21.7,00.0,31.5,23.8,05.5,0000.0,0001.56,0000.05,0000.01
2022-01-02 09:32:00,,0824.0,5.01,0.00,22.3,21.5,00.0,31.5,23.7,05.5,0000.0,0001.04,0000.04,0000.01
2022-01-02 09:33:00,,0824.1,4.99,0.00,22.2,21.4,00.0,31.5,23.7,05.5,0000.0,0001.04,0000.03,0000.01
2022-01-02 09:34:00,,0824.2,5.00,0.00,22.2,21.3,00.0,31.4,23.6,04.9,0000.0,0000.93,0000.02,0000.01
2022-01-02 09:35:00,,0824.2,5.00,0.00,22.2,21.8,00.0,31.4,23.7,04.5,0000.0,0001.48,0000.02,0000.01
2022-01-02 09:36:00,,0824.2,5.00,0.00,22.3,22.6,00.0,31.4,24.0,04.6,0000.0,0002.66,0000.03,0000.01
2022-01-02 09:37:00,,0824.1,4.99,0.00,22.5,23.2,00.0,31.5,24.3,04.9,0000.0,0002.66,0000.03,0000.01
2022-01-02 09:38:00,,0824.1,5.01,0.00,22.6,23.1,00.0,31.5,24.4,05.0,0000.0,0002.68,0000.05,0000.01
2022-01-02 09:39:00,,0824.1,5.00,0.00,22.5,22.8,00.0,31.5,24.3,05.1,0000.0,0002.68,0000.05,0000.01
2022-01-02 09:40:00,,0824.1,5.00,0.00,22.5,22.5,00.0,31.5,24.1,05.3,0000.0,0002.68,0000.05,0000.01
2022-01-02 09:41:00,,0824.1,4.99,0.00,22.4,22.1,00.0,31.5,23.9,05.4,0000.0,0001.99,0000.05,0000.01
2022-01-02 09:42:00,,0824.0,5.01,0.00,22.3,21.7,00.0,31.4,23.7,05.5,0000.0,0001.87,0000.05,0000.01
2022-01-02 09:43:00,,0824.1,5.00,0.00,22.2,21.4,00.0,31.4,23.5,05.6,0000.0,0001.90,0000.06,0000.01
2022-01-02 09:44:00,,0824.1,5.00,0.00,22.1,21.2,00.0,31.4,23.4,05.6,0000.0,0002.01,0000.07,0000.01
2022-01-02 09:45:00,,0824.0,5.01,0.00,22.2,21.9,00.0,31.4,23.7,04.7,0000.0,0002.02,0000.07,0000.01
2022-01-02 09:46:00,,0824.1,5.00,0.00,22.3,22.8,00.0,31.4,24.0,04.4,0000.0,0002.43,0000.06,0000.01
2022-01-02 09:47:00,,0824.0,5.00,0.00,22.4,23.1,00.0,31.4,24.2,04.4,0000.0,0001.49,0000.06,0000.00
2022-01-02 09:48:00,,0824.0,5.00,0.00,22.5,22.9,00.0,31.4,24.2,04.4,0000.0,0001.48,0000.05,0000.01
2022-01-02 09:49:00,,0824.1,5.00,0.00,22.5,22.6,00.0,31.4,24.2,04.4,0000.0,0001.46,0000.04,0000.00
2022-01-02 09:50:00,,0824.0,5.01,0.00,22.4,22.4,00.0,31.4,24.1,04.7,0000.0,0001.46,0000.04,0000.00
2022-01-02 09:51:00,,0824.0,5.00,0.00,22.4,22.1,00.0,31.4,23.9,05.0,0000.0,0001.49,0000.04,0000.00
2022-01-02 09:52:00,,0824.0,4.99,0.00,22.3,21.8,00.0,31.4,23.8,04.7,0000.0,0001.57,0000.05,0000.01
2022-01-02 09:53:00,,0824.0,5.02,0.00,22.2,21.6,00.0,31.4,23.7,04.6,0000.0,0001.48,0000.04,0000.00
2022-01-02 09:54:00,,0824.0,4.99,0.00,22.1,21.4,00.0,31.3,23.6,04.7,0000.0,0001.46,0000.05,0000.00
2022-01-02 09:55:00,,0824.0,5.01,0.00,22.1,21.3,00.0,31.3,23.6,04.4,0000.0,0001.40,0000.05,0000.01
2022-01-02 09:56:00,,0824.0,4.99,0.00,22.1,22.0,00.0,31.3,23.8,04.5,0000.0,0001.39,0000.05,0000.01
2022-01-02 09:57:00,,0824.0,5.01,0.00,22.3,22.8,00.0,31.3,24.1,04.8,0000.0,0000.20,0000.05,0000.01
2022-01-02 09:58:00,,0824.0,5.01,0.00,22.4,23.2,00.0,31.4,24.3,04.9,0000.0,0000.19,0000.05,0000.01
2022-01-02 09:59:00,,0824.0,4.99,0.00,22.5,23.0,00.0,31.4,24.3,04.4,0000.0,0000.19,0000.05,0000.01
